GFSWCAN_925_temp_024.txt.gz
Temp
3 3 3 4 4 4 4 5 5 5 5 6 6 6 6 7 7 6 9 9 11 15 23 24 25 24 23 23 19 20 20 20 20 18 17 20 18 20 21 22 18 17 17 15 17 14 15 23 22 19 20 21 21 21
3 4 4 4 4 4 5 5 5 5 5 6 6 6 8 7 7 7 9 11 10 15 19 18 18 19 22 24 21 20 23 21 21 21 18 19 14 13 18 19 23 20 21 20 19 18 22 23 22 22 21 20 20 20
4 4 4 5 5 5 5 5 5 5 5 5 6 7 8 7 8 8 10 11 14 18 18 20 19 17 18 18 20 21 22 24 23 23 19 18 13 16 14 18 21 22 22 19 19 23 23 23 22 22 21 20 20 20
4 4 4 4 4 4 5 5 5 5 5 6 6 8 8 7 8 9 8 10 15 18 13 17 17 18 17 18 19 20 23 21 21 21 17 12 14 20 17 20 19 21 21 20 20 21 22 22 20 18 18 18 18 17
4 4 4 4 5 5 5 5 5 5 6 8 8 8 8 8 10 9 10 10 15 20 15 16 17 17 18 18 19 20 21 21 20 17 12 17 18 17 16 18 18 21 21 18 17 19 18 18 16 17 15 15 15 14
4 4 4 4 5 5 5 6 6 6 5 7 7 8 10 10 11 9 12 15 15 19 17 15 16 17 19 19 20 20 20 21 21 19 15 19 18 18 15 17 20 18 18 18 18 17 17 16 14 13 12 12 11 10
6 6 7 7 7 6 7 7 7 8 9 9 10 10 11 11 10 13 14 12 15 17 16 13 13 16 18 18 18 19 20 20 21 18 15 17 17 17 12 17 18 16 16 16 15 16 14 15 13 12 9 8 7 6
6 6 7 7 8 9 9 9 8 9 9 10 11 11 11 11 11 13 12 13 14 17 16 13 11 13 16 14 14 16 17 18 16 14 15 15 14 15 16 16 15 14 15 14 14 15 14 12 10 9 8 8 7 7
8 7 7 8 8 8 8 8 10 11 11 11 11 11 10 14 14 12 13 13 14 14 12 13 12 13 15 12 12 13 16 13 14 12 15 15 11 14 16 15 14 13 14 13 14 12 10 9 8 8 8 7 6 6
9 10 9 8 7 7 8 9 9 10 11 11 12 16 11 10 12 11 13 15 13 11 13 10 12 12 13 10 10 11 11 12 12 12 13 13 12 12 11 12 12 12 13 13 9 7 7 7 7 7 8 6 5 5
10 10 10 11 10 9 8 9 9 11 12 14 13 10 9 10 12 12 11 13 13 11 11 10 11 11 12 12 10 10 11 11 12 12 12 12 12 10 10 9 10 11 11 10 9 8 8 8 7 6 5 4 3 2
11 12 11 11 11 13 13 13 13 13 11 13 12 10 10 11 10 9 10 10 11 11 8 9 10 11 10 13 11 10 9 11 12 11 11 12 10 9 8 7 8 9 9 9 8 7 7 6 5 4 2 1 0 -0
9 10 11 11 11 11 11 12 12 13 13 13 10 7 10 8 10 11 9 9 9 7 6 8 8 9 10 11 10 10 10 11 12 10 12 10 7 6 7 8 8 8 7 7 6 6 4 2 1 1 -1 -1 2 1
9 9 10 10 11 10 11 12 13 13 11 9 8 8 7 8 6 6 6 6 4 4 6 8 8 8 8 8 8 10 7 10 10 10 11 6 6 5 7 7 7 6 4 5 4 2 0 -1 -1 -2 -2 -2 -2 -2
9 9 10 9 8 10 10 11 13 11 7 6 6 6 5 4 3 3 3 4 3 5 6 9 9 9 8 7 8 8 8 10 10 10 7 5 4 5 6 6 4 3 2 3 2 0 -1 -1 -1 -2 -2 -2 -2 -3
8 9 6 7 9 10 11 11 8 5 4 4 3 5 4 5 4 3 3 4 3 4 6 8 8 8 8 8 9 9 10 10 8 5 4 3 3 4 5 5 4 5 4 3 1 -0 -1 -1 -0 -1 -2 -2 -3 -3
8 4 7 7 8 7 9 6 5 5 4 4 4 2 3 3 3 3 2 3 3 5 6 7 8 7 7 8 8 7 7 6 3 3 2 2 3 3 5 3 3 4 3 2 1 1 -0 -1 -1 -0 0 -1 -1 -2
4 5 8 9 8 8 6 6 5 5 4 3 4 3 2 2 3 3 3 4 4 4 5 6 5 7 7 8 7 5 4 2 3 3 2 2 3 3 4 4 3 3 2 1 0 -1 -1 -0 1 0 -1 -2 -1 -2
4 5 7 8 7 6 6 5 6 4 3 3 2 3 3 3 4 3 3 5 6 6 5 5 5 5 5 3 3 3 3 3 3 2 2 2 2 2 3 2 1 0 0 1 1 1 -1 -2 -2 -2 -3 -3 -4 -4
6 7 6 6 7 6 5 5 7 5 4 3 3 4 4 4 3 3 3 6 7 7 5 4 3 2 2 1 0 1 1 2 2 2 1 1 2 2 2 1 2 1 -0 -1 -2 -1 -1 -2 -4 -5 -6 -5 -6 -6
6 6 5 6 5 5 5 6 5 6 5 5 5 5 5 4 4 3 4 6 4 2 3 1 1 0 -1 -1 -2 -1 -1 -1 0 1 2 1 -0 -1 -1 -1 -1 -1 -2 -2 -3 -4 -5 -5 -6 -7 -7 -7 -8 -7
4 4 4 4 4 3 4 4 6 6 6 5 6 6 5 4 4 3 5 3 1 0 1 0 -1 -0 -1 -2 -2 -2 -2 -3 -3 -2 -2 -2 -1 -2 -3 -3 -4 -5 -6 -6 -6 -6 -6 -8 -9 -9 -8 -9 -8 -8
4 4 3 3 2 2 2 5 3 5 4 5 6 5 4 3 4 5 3 1 -0 -1 -1 -1 -1 -2 -2 -3 -3 -4 -4 -3 -4 -4 -5 -5 -6 -6 -7 -8 -7 -6 -7 -8 -8 -8 -8 -9 -9 -10 -9 -9 -9 -9
3 0 1 2 3 1 3 3 5 5 5 4 5 3 2 2 4 4 1 -0 -2 -2 -1 -1 -1 -1 -2 -3 -4 -5 -4 -5 -5 -5 -6 -6 -7 -8 -8 -9 -10 -10 -9 -9 -9 -9 -9 -10 -10 -10 -10 -11 -10 -11
2 1 2 3 3 3 3 3 4 4 3 3 3 3 2 3 3 2 1 -1 -2 -3 -3 -2 -3 -3 -3 -4 -5 -6 -6 -6 -6 -7 -8 -6 -7 -8 -8 -9 -10 -11 -11 -10 -11 -11 -11 -11 -11 -12 -12 -12 -11 -12
1 1 2 2 2 3 3 3 3 3 3 3 2 2 2 3 3 1 -1 -3 -4 -5 -5 -5 -4 -4 -5 -6 -6 -7 -8 -7 -7 -8 -9 -9 -8 -7 -7 -7 -8 -11 -13 -13 -13 -13 -12 -12 -13 -13 -13 -12 -12 -13
1 1 1 1 2 2 2 2 3 3 3 2 2 3 3 3 1 -2 -4 -5 -5 -7 -7 -7 -6 -6 -6 -7 -8 -9 -9 -10 -9 -9 -10 -11 -11 -12 -12 -12 -12 -14 -15 -14 -15 -15 -14 -14 -14 -14 -14 -13 -13 -14
1 0 1 1 2 2 2 2 2 2 1 1 2 1 1 -1 -3 -4 -5 -6 -7 -7 -8 -8 -9 -9 -9 -9 -9 -9 -8 -9 -10 -10 -10 -11 -11 -12 -13 -13 -14 -15 -15 -15 -15 -15 -15 -15 -16 -15 -15 -15 -15 -15
0 0 1 -0 2 1 1 1 1 -0 -0 -0 1 -0 -3 -6 -7 -7 -7 -7 -7 -7 -7 -8 -8 -9 -9 -10 -11 -11 -12 -12 -10 -9 -9 -9 -9 -12 -13 -14 -14 -14 -15 -15 -15 -15 -15 -16 -16 -16 -16 -16 -16 -16
0 0 2 1 1 0 -1 -1 -1 -2 -2 -2 -3 -4 -6 -8 -9 -9 -9 -9 -9 -9 -9 -9 -9 -9 -10 -9 -10 -11 -13 -14 -15 -14 -12 -12 -13 -14 -14 -14 -15 -15 -15 -16 -16 -16 -16 -16 -16 -16 -15 -15 -16 -16
1 1 2 2 0 -1 -2 -2 -2 -2 -3 -4 -4 -4 -6 -8 -10 -11 -11 -10 -10 -10 -9 -10 -11 -11 -12 -12 -12 -12 -11 -14 -15 -15 -16 -16 -15 -15 -15 -15 -16 -16 -16 -16 -16 -17 -17 -16 -16 -16 -16 -16 -17 -17
-0 -1 0 1 -0 -2 -2 -2 -1 -1 -2 -3 -4 -5 -6 -6 -7 -10 -13 -11 -10 -11 -12 -11 -11 -12 -14 -14 -14 -14 -14 -15 -15 -16 -16 -17 -17 -17 -17 -17 -17 -17 -16 -17 -17 -17 -17 -17 -17 -17 -17 -17 -18 -19
0 0 -0 0 0 -1 -2 -1 -1 -2 -3 -4 -5 -5 -7 -7 -9 -11 -12 -13 -13 -13 -13 -13 -13 -14 -14 -15 -15 -15 -14 -15 -16 -16 -16 -17 -17 -18 -19 -18 -18 -18 -18 -18 -18 -18 -17 -17 -17 -17 -18 -19 -19 -20

GFSWCAN_925_temp_027.txt.gz
Temp
3 3 3 3 3 3 3 3 4 4 4 5 5 6 6 7 7 6 6 7 9 11 14 18 20 19 19 17 14 15 14 14 11 13 12 12 11 13 14 16 14 13 11 9 10 11 13 19 20 17 15 17 17 18
3 3 3 3 3 4 3 3 4 4 4 6 6 6 6 7 7 7 5 7 8 9 12 14 18 18 21 18 15 15 17 15 15 13 12 10 11 9 13 13 18 14 14 12 13 12 15 20 18 17 16 16 16 16
3 3 3 4 4 4 4 4 5 5 5 5 6 6 6 6 6 6 6 9 9 10 11 13 15 17 21 21 21 15 16 18 18 15 11 11 12 8 11 11 17 19 19 13 15 19 19 18 16 15 15 14 14 12
3 4 4 4 4 4 5 5 5 5 5 5 6 6 5 6 6 7 7 8 9 9 10 13 17 16 18 20 21 21 18 18 16 13 9 9 11 14 10 13 12 15 17 17 16 18 15 14 14 14 13 13 11 11
4 4 4 4 4 5 5 5 5 5 5 5 5 6 6 6 7 7 7 8 9 9 11 12 15 17 18 19 20 20 17 16 13 11 7 10 9 11 7 9 10 16 16 12 10 15 13 12 12 12 11 10 10 8
4 4 4 4 4 4 4 5 5 5 5 6 6 5 6 6 6 8 9 10 8 8 10 11 13 15 18 19 17 17 15 16 15 12 10 12 14 11 9 9 15 15 14 14 14 13 12 11 9 9 8 8 7 7
4 4 4 4 4 4 4 5 5 5 5 6 5 6 6 6 8 9 10 9 9 8 11 9 10 13 16 14 11 14 15 13 13 12 9 11 13 11 7 10 14 14 13 13 13 12 11 11 8 8 7 6 6 6
4 4 4 4 4 4 4 5 5 5 6 6 7 6 7 8 9 9 10 11 12 13 11 10 9 10 14 9 9 11 11 10 11 10 9 8 9 6 10 12 13 13 13 12 11 11 9 8 8 7 7 6 5 4
5 4 5 5 5 5 5 5 6 5 6 6 6 7 7 9 10 11 12 13 15 13 9 8 10 11 11 9 8 10 11 9 10 8 8 9 6 10 13 12 11 11 12 10 9 9 8 7 7 7 5 5 4 3
7 7 7 6 6 6 6 6 6 6 7 9 9 10 9 9 11 12 13 10 9 9 8 7 8 10 11 7 8 8 6 9 8 9 9 7 6 9 9 9 10 11 10 8 6 6 6 7 6 6 5 4 4 3
7 7 8 8 9 8 8 8 9 10 9 10 9 8 9 11 12 7 7 8 8 7 6 7 8 9 9 9 8 7 8 7 8 8 8 8 7 8 8 8 7 8 10 9 8 7 7 6 5 3 2 1 -0 -1
8 7 7 7 7 8 8 8 8 10 11 12 10 10 10 9 8 7 7 6 8 8 5 7 7 9 7 9 7 8 9 7 9 9 9 8 7 7 7 7 8 8 7 7 7 6 5 4 3 1 -0 -1 -2 -2
10 9 9 9 8 7 7 10 11 12 13 13 8 6 9 6 8 9 8 9 8 5 5 5 7 6 7 8 7 7 10 9 7 9 9 6 7 6 7 7 6 6 6 4 3 3 2 0 -0 -1 -1 -1 -2 -2
10 11 9 9 9 9 10 10 11 13 12 6 6 7 6 7 6 5 5 5 3 3 4 5 6 6 5 6 6 9 6 7 9 9 8 5 5 5 6 6 6 4 2 2 1 -1 -1 -2 -2 -2 -2 -1 -2 -3
9 10 11 10 9 10 11 12 12 11 5 4 5 5 4 3 3 3 3 3 3 3 4 6 6 7 6 7 6 7 8 9 8 7 6 4 4 5 5 4 3 2 1 0 -0 -1 -2 -2 -3 -3 -2 -2 -3 -3
8 9 6 7 9 10 11 12 8 5 2 3 3 5 4 4 4 3 3 3 3 3 4 5 6 7 7 7 8 8 8 7 6 4 3 3 3 3 3 3 3 2 1 0 -0 -1 -1 -2 -2 -3 -3 -3 -3 -3
8 5 7 8 8 9 10 7 4 2 2 3 3 2 3 3 3 3 2 3 3 4 5 5 7 6 5 7 6 5 5 4 3 2 2 2 3 2 1 2 2 1 0 -1 -1 -1 -1 -1 -2 -2 -2 -3 -3 -3
4 6 8 9 10 8 6 6 3 3 3 2 3 2 2 2 2 2 2 2 3 3 4 5 4 5 5 6 4 4 3 2 2 1 1 2 2 2 2 2 2 1 0 -0 -1 -1 -1 -1 -2 -3 -3 -3 -4 -4
5 6 7 8 8 6 3 4 5 3 2 2 2 2 2 2 1 2 2 3 4 3 3 4 3 3 2 1 1 1 2 2 2 1 1 1 2 2 2 0 -1 -1 -1 -1 -1 -2 -3 -3 -4 -4 -5 -5 -6 -6
6 7 6 6 7 4 3 3 6 3 3 2 2 2 2 2 2 2 2 2 3 2 2 2 1 0 -0 -1 -1 -0 -0 0 1 1 1 1 1 0 -0 -0 -1 -2 -2 -3 -3 -3 -4 -5 -6 -6 -6 -7 -7 -7
7 6 6 5 5 4 2 1 2 2 2 2 2 2 2 1 3 2 1 1 1 0 1 -1 -1 -2 -2 -3 -3 -2 -2 -2 -2 -0 1 -1 -2 -2 -2 -2 -3 -3 -4 -4 -5 -7 -8 -8 -8 -8 -8 -8 -8 -8
4 5 5 4 2 2 1 2 2 2 2 3 2 2 1 0 1 2 -1 -1 -1 -1 -1 -2 -2 -2 -3 -3 -4 -4 -3 -4 -4 -5 -5 -5 -5 -5 -5 -6 -6 -7 -7 -7 -7 -8 -9 -9 -9 -9 -9 -9 -9 -9
5 4 3 3 -1 -1 -1 3 0 3 0 1 1 1 2 2 1 1 -1 -1 -2 -2 -2 -2 -3 -3 -4 -5 -5 -5 -5 -5 -5 -6 -7 -7 -8 -8 -8 -9 -8 -8 -8 -9 -9 -9 -9 -10 -10 -10 -10 -10 -10 -11
4 0 -2 -1 -1 0 -2 -1 0 1 -0 -0 -0 1 1 1 -1 -3 -1 -2 -3 -4 -3 -4 -3 -3 -4 -5 -6 -6 -6 -6 -7 -7 -7 -8 -8 -9 -10 -10 -10 -10 -10 -10 -10 -10 -11 -11 -11 -12 -12 -12 -12 -12
-1 -2 -1 -2 -1 -2 1 3 2 1 2 2 -0 0 1 -1 -2 -1 -2 -3 -6 -6 -6 -4 -5 -6 -6 -7 -7 -8 -8 -8 -8 -9 -9 -8 -8 -9 -10 -11 -12 -12 -12 -12 -12 -12 -12 -13 -13 -13 -13 -13 -13 -13
0 -0 1 1 1 2 2 2 1 1 2 1 1 0 0 0 -2 -3 -3 -5 -7 -8 -7 -7 -6 -8 -8 -8 -8 -9 -10 -8 -9 -10 -11 -10 -10 -10 -10 -11 -12 -14 -14 -14 -14 -15 -14 -14 -14 -14 -14 -14 -13 -14
1 1 0 -0 1 1 1 1 1 0 -1 -0 1 1 0 -0 -4 -4 -6 -6 -7 -8 -8 -8 -8 -8 -8 -8 -9 -9 -9 -9 -10 -10 -11 -11 -12 -12 -12 -13 -14 -15 -15 -15 -15 -15 -16 -16 -16 -16 -16 -15 -15 -15
-1 -0 0 1 1 1 1 1 0 -1 -1 -1 -0 -3 -4 -5 -6 -6 -6 -7 -7 -8 -9 -9 -9 -9 -10 -10 -10 -10 -10 -10 -10 -11 -11 -12 -13 -13 -14 -14 -14 -15 -15 -15 -15 -15 -16 -16 -16 -16 -16 -16 -16 -16
-1 -0 -2 -2 1 -0 -1 -0 -1 -2 -2 -2 -2 -4 -6 -8 -9 -8 -8 -8 -8 -9 -9 -9 -9 -10 -11 -11 -11 -12 -12 -11 -11 -16 -17 -18 -13 -14 -14 -14 -15 -15 -15 -15 -16 -16 -16 -16 -16 -16 -16 -16 -16 -16
-0 -1 -1 -2 -1 -1 -3 -2 -3 -4 -4 -4 -7 -7 -8 -10 -11 -10 -10 -10 -9 -10 -10 -11 -11 -11 -12 -12 -13 -14 -14 -14 -14 -15 -19 -20 -16 -16 -15 -15 -15 -16 -16 -16 -16 -16 -16 -17 -17 -17 -16 -16 -16 -17
-1 -2 -3 -3 -5 -4 -3 -3 -3 -3 -4 -7 -7 -10 -10 -11 -11 -12 -11 -11 -11 -11 -11 -12 -13 -13 -13 -14 -14 -14 -14 -15 -15 -16 -16 -16 -16 -17 -17 -17 -17 -17 -17 -17 -16 -17 -17 -17 -17 -17 -17 -17 -17 -18
-1 -1 -5 -4 -4 -5 -2 -3 -2 -2 -5 -7 -10 -12 -12 -10 -13 -12 -13 -12 -12 -13 -13 -13 -13 -14 -14 -14 -14 -15 -15 -15 -15 -16 -16 -16 -17 -17 -18 -18 -18 -18 -18 -18 -18 -18 -18 -18 -18 -17 -17 -18 -18 -19
-3 -5 -5 -6 -5 -4 -6 -6 -4 -6 -8 -9 -10 -9 -12 -12 -13 -12 -13 -13 -14 -14 -14 -14 -14 -14 -14 -14 -15 -15 -15 -16 -16 -17 -17 -17 -17 -17 -18 -18 -19 -19 -19 -19 -20 -20 -19 -19 -19 -19 -18 -19 -19 -20

GFSWCAN_925_temp_030.txt.gz
Temp
3 3 3 3 3 3 3 3 3 3 3 4 4 4 4 5 5 6 6 7 8 9 11 12 16 17 17 17 15 14 14 14 9 12 11 10 10 12 12 14 13 13 10 8 10 9 14 16 18 17 14 14 15 15
3 3 3 3 3 3 3 3 4 4 3 4 4 4 5 5 6 6 6 7 6 7 10 10 12 13 20 17 14 13 16 15 13 12 10 9 11 8 12 12 15 15 12 11 12 12 14 17 17 15 14 14 14 13
3 4 3 3 3 3 3 4 4 4 3 4 4 5 5 5 6 6 7 7 7 8 9 10 12 17 17 21 22 15 14 16 14 13 10 10 12 7 11 10 14 16 15 13 14 15 14 13 12 13 12 11 10 10
3 4 4 4 3 3 3 3 3 3 4 4 5 5 5 6 6 6 6 7 8 9 9 12 15 15 16 18 21 21 17 15 13 11 8 8 10 11 8 13 11 14 15 15 13 13 13 12 11 11 10 9 8 8
3 4 3 4 4 4 4 4 4 5 5 5 5 5 6 6 5 6 6 7 7 9 10 10 12 16 17 18 20 20 16 14 11 10 7 9 7 10 5 9 9 14 14 12 11 14 12 11 10 9 9 8 7 6
4 4 4 4 4 4 4 4 5 5 5 5 5 5 5 5 6 6 7 7 7 8 9 9 11 12 14 14 14 16 15 13 12 11 7 10 12 10 9 8 14 13 13 13 13 12 10 8 8 8 6 6 5 5
4 4 4 4 4 4 5 5 5 5 5 5 5 6 6 6 6 8 9 9 9 8 9 9 9 11 12 11 10 12 12 11 12 11 8 10 11 9 5 10 13 12 11 11 10 9 8 8 6 6 5 5 4 4
4 4 4 4 4 4 4 4 5 5 5 5 5 6 6 6 7 8 9 9 8 9 10 9 10 10 11 9 10 9 9 10 10 10 8 7 9 5 10 11 11 11 10 10 9 9 8 6 6 5 5 5 4 3
4 4 4 4 4 4 4 4 5 5 5 6 6 6 6 7 8 9 11 8 8 9 9 7 9 11 9 7 7 8 8 9 8 8 8 9 7 8 11 11 11 10 10 7 7 7 6 5 5 4 4 3 2 1
3 3 3 4 4 4 4 4 5 5 5 5 6 7 7 8 8 8 8 9 8 8 6 7 8 9 10 6 7 6 6 8 9 8 7 7 7 8 7 8 9 8 8 7 6 5 5 4 4 4 3 2 2 0
4 4 4 4 4 4 5 5 5 6 6 7 8 7 8 8 8 7 7 7 7 6 6 6 6 9 8 8 8 5 7 6 8 8 8 8 8 7 7 6 7 8 7 7 6 5 5 5 3 2 1 -0 -2 -2
6 6 5 5 5 6 6 5 5 6 8 9 9 9 8 8 6 7 6 7 7 8 6 7 7 8 7 8 8 7 8 6 8 8 7 10 7 7 7 7 7 7 7 7 6 5 4 4 3 1 -1 -2 -2 -2
7 6 6 6 6 6 7 8 7 8 9 9 6 5 8 5 7 7 8 8 7 5 5 5 7 6 6 7 6 6 8 7 6 10 9 5 6 6 6 6 5 5 4 3 3 2 1 0 -0 -1 -2 -3 -3 -3
6 7 7 6 6 6 7 7 7 10 10 4 5 6 6 6 5 5 5 5 4 3 4 5 5 6 4 6 5 8 6 7 6 6 7 5 5 5 5 4 4 3 1 1 0 -1 -1 -1 -2 -2 -2 -2 -3 -4
8 8 8 8 8 9 10 10 11 10 4 3 4 5 4 3 3 3 3 3 3 3 4 5 5 6 6 7 6 6 8 8 6 6 5 4 4 4 4 3 2 0 -0 -0 -1 -1 -2 -2 -3 -3 -3 -3 -3 -4
9 10 5 6 9 10 10 10 8 5 2 2 3 4 3 4 4 3 3 3 3 2 3 4 6 6 6 6 8 7 8 7 5 4 3 3 3 3 3 2 1 0 -0 -1 -1 -2 -2 -3 -3 -3 -3 -3 -3 -4
9 6 6 8 10 11 12 7 4 2 3 2 3 2 3 3 3 3 2 2 2 4 5 5 6 6 5 6 5 4 4 4 3 2 2 2 2 1 1 1 0 -0 -0 -1 -1 -2 -2 -3 -3 -4 -4 -4 -4 -4
6 7 8 9 10 9 7 5 2 3 3 2 3 2 2 2 2 2 2 2 3 3 3 4 4 4 3 4 3 2 2 2 1 1 2 1 1 1 1 1 0 -1 -1 -1 -1 -2 -3 -3 -3 -3 -4 -4 -5 -5
5 7 8 8 9 7 3 4 3 3 2 2 2 2 1 2 1 1 1 2 2 2 2 2 1 2 1 -0 -0 -0 -0 1 1 1 1 1 1 1 1 -0 -1 -1 -1 -2 -2 -3 -4 -5 -5 -5 -5 -6 -7 -7
6 6 6 7 7 3 3 3 4 2 3 2 2 2 2 2 1 1 0 1 2 1 1 0 -1 -2 -2 -2 -2 -2 -2 -1 1 1 1 -0 -1 -0 -1 -1 -3 -3 -4 -5 -6 -6 -6 -7 -7 -7 -7 -7 -8 -8
7 6 6 5 5 4 0 1 2 2 2 2 0 1 1 1 1 -0 -1 -1 0 -0 -1 -2 -3 -3 -4 -4 -4 -3 -4 -4 -4 -1 -1 -3 -4 -5 -5 -5 -5 -5 -6 -7 -7 -8 -8 -9 -9 -9 -9 -9 -9 -9
5 5 4 4 -0 0 -0 1 1 0 2 1 1 1 -0 -0 -0 -1 -2 -2 -2 -2 -2 -3 -3 -4 -4 -4 -5 -5 -5 -6 -6 -6 -7 -6 -6 -6 -7 -7 -7 -8 -8 -8 -9 -9 -10 -10 -10 -10 -10 -10 -10 -10
5 4 3 0 -3 -2 -2 1 -0 1 -0 -0 -1 1 0 -0 0 -2 -3 -2 -3 -4 -3 -4 -5 -5 -6 -6 -6 -7 -7 -6 -7 -7 -8 -8 -9 -9 -9 -9 -9 -9 -9 -9 -9 -10 -11 -11 -11 -11 -11 -11 -11 -12
4 -1 -2 -4 -3 -3 -5 -1 -1 -1 -2 -2 -2 -0 0 -0 -2 -4 -4 -4 -5 -6 -5 -5 -5 -5 -6 -7 -8 -8 -8 -8 -9 -9 -8 -9 -9 -10 -11 -11 -11 -11 -11 -11 -12 -12 -12 -12 -12 -12 -13 -13 -13 -13
-2 -3 -4 -4 -5 -2 0 -1 -2 -2 -2 -4 -2 -0 0 -4 -3 -5 -5 -6 -7 -8 -8 -7 -8 -8 -9 -9 -9 -9 -9 -9 -10 -10 -11 -9 -10 -11 -12 -13 -13 -14 -13 -13 -14 -14 -14 -14 -14 -14 -14 -14 -14 -14
-0 -2 -1 1 -0 0 1 0 0 0 -4 -3 -1 -1 -5 -6 -8 -6 -5 -9 -9 -10 -10 -9 -10 -9 -9 -9 -10 -10 -10 -9 -10 -11 -12 -11 -11 -11 -13 -13 -14 -15 -15 -15 -15 -15 -15 -15 -16 -16 -16 -16 -16 -16
-0 -3 -1 -1 -0 -2 -2 -3 -4 -4 -5 -4 -4 -5 -2 -7 -7 -6 -7 -7 -8 -9 -9 -9 -9 -10 -10 -10 -11 -10 -10 -10 -11 -12 -12 -13 -13 -13 -13 -14 -14 -15 -15 -15 -15 -16 -16 -16 -16 -16 -16 -16 -16 -16
-1 -1 -2 -1 -3 -3 -5 -5 -6 -4 -4 -3 -4 -7 -8 -10 -8 -7 -8 -8 -9 -9 -10 -10 -10 -11 -12 -12 -12 -11 -10 -11 -12 -12 -13 -14 -14 -15 -15 -15 -15 -15 -15 -15 -16 -16 -16 -16 -16 -16 -17 -17 -17 -16
-1 -2 -5 -3 -5 -3 -4 -5 -6 -4 -4 -4 -7 -8 -9 -9 -11 -10 -10 -10 -9 -10 -11 -11 -12 -12 -12 -13 -13 -13 -12 -12 -11 -20 -22 -22 -17 -16 -16 -16 -16 -16 -16 -16 -16 -16 -16 -16 -17 -17 -17 -17 -17 -17
-5 -8 -7 -9 -8 -6 -6 -5 -6 -7 -8 -10 -9 -9 -10 -11 -12 -11 -11 -11 -12 -13 -13 -13 -13 -13 -14 -14 -15 -15 -15 -15 -15 -15 -21 -21 -17 -17 -17 -17 -17 -17 -18 -17 -17 -17 -17 -17 -17 -17 -17 -17 -17 -17
-6 -9 -8 -8 -6 -4 -4 -5 -4 -6 -11 -13 -12 -14 -14 -14 -12 -12 -12 -12 -12 -13 -13 -14 -14 -14 -14 -15 -15 -15 -15 -16 -16 -17 -17 -17 -17 -17 -17 -18 -18 -18 -18 -18 -18 -19 -19 -19 -19 -18 -18 -18 -18 -18
-10 -10 -9 -7 -6 -7 -7 -4 -6 -7 -11 -12 -14 -19 -16 -17 -17 -14 -14 -13 -13 -14 -14 -14 -14 -14 -14 -15 -15 -16 -16 -17 -17 -17 -17 -18 -18 -18 -18 -18 -18 -19 -19 -19 -19 -20 -20 -20 -20 -20 -20 -19 -19 -19
-10 -13 -14 -12 -8 -9 -12 -10 -8 -10 -12 -13 -13 -14 -15 -16 -15 -13 -14 -14 -14 -15 -15 -15 -15 -14 -15 -15 -16 -17 -17 -17 -17 -18 -18 -18 -18 -19 -19 -19 -19 -19 -19 -19 -19 -19 -20 -20 -21 -21 -21 -21 -21 -21

GFSWCAN_925_temp_033.txt.gz
Temp
4 4 4 3 3 3 3 3 3 3 3 3 3 3 4 4 4 4 4 6 7 7 9 11 11 13 15 15 14 13 15 13 8 12 11 10 10 12 12 14 13 13 11 8 7 9 14 15 16 16 13 14 14 14
2 2 2 2 2 2 2 3 3 3 3 3 3 4 4 4 3 4 6 6 7 7 8 8 9 10 11 16 14 11 16 14 13 12 9 9 9 7 11 12 14 15 12 11 12 12 14 15 16 15 13 13 13 13
3 3 3 3 3 3 3 3 3 3 3 4 4 4 4 4 4 4 6 6 7 7 7 8 10 15 14 13 17 14 12 14 13 12 10 9 12 8 11 10 13 14 13 12 13 15 14 13 11 11 12 11 10 11
3 3 3 4 3 3 3 3 3 4 4 4 4 4 4 4 5 5 7 7 8 8 8 11 12 12 14 15 16 19 16 13 11 10 9 8 10 10 9 12 10 12 13 12 11 12 12 11 10 8 8 7 7 7
3 4 4 4 3 4 3 4 3 3 3 4 4 4 4 5 5 6 6 7 8 9 8 9 9 12 13 14 16 18 14 13 11 10 7 10 8 10 5 8 8 12 13 12 11 12 12 11 8 8 8 7 6 6
4 3 4 3 4 3 3 3 3 4 4 4 4 5 5 5 5 6 6 6 8 7 8 7 9 10 12 14 13 16 14 12 11 11 7 9 11 11 10 9 14 13 13 13 14 11 9 8 7 7 6 5 5 4
4 4 3 3 4 4 3 4 4 4 5 5 4 5 5 5 5 6 7 8 9 7 8 7 5 9 11 11 10 11 11 11 11 10 7 9 10 10 5 10 14 11 10 9 8 8 7 7 5 5 4 4 4 3
4 4 4 4 4 4 5 5 4 5 5 4 4 5 5 6 6 6 9 8 9 8 8 8 8 8 10 8 10 9 9 9 10 9 7 7 8 5 11 11 9 9 9 8 7 8 7 5 5 4 4 3 3 2
4 4 4 4 4 4 5 5 5 5 5 5 6 5 5 5 6 7 8 7 8 9 9 7 8 9 9 7 7 8 8 9 8 8 8 9 7 10 10 10 9 9 9 6 6 5 5 4 4 3 3 2 1 0
4 4 4 4 4 4 4 5 5 5 5 5 5 7 6 8 9 9 8 8 8 8 7 7 7 9 9 6 7 8 7 8 9 8 7 8 8 7 6 8 7 7 7 6 5 4 4 3 3 3 2 2 1 -0
4 4 4 4 4 4 5 5 5 5 5 6 6 6 7 8 8 6 7 7 7 7 6 7 7 9 8 8 8 5 7 6 10 9 9 8 8 7 6 6 6 7 7 6 6 5 5 4 2 1 0 -0 -1 -1
4 4 4 4 4 5 5 5 5 5 6 6 8 8 8 8 6 5 6 6 7 8 5 7 7 8 6 7 7 7 8 7 9 7 7 9 7 5 5 5 5 5 5 5 5 5 4 3 3 1 -0 -1 -2 -2
4 4 4 4 4 4 5 5 5 6 7 7 6 5 6 4 7 7 8 7 7 5 5 5 6 5 6 6 5 5 6 6 5 9 9 7 6 6 5 5 4 5 5 4 3 3 2 0 -1 -1 -2 -3 -3 -3
5 5 5 4 4 4 5 6 6 6 7 4 5 5 5 5 5 4 5 5 4 3 4 4 5 6 4 6 5 7 6 7 8 8 7 5 5 4 4 4 3 2 1 1 1 0 -1 -1 -3 -3 -3 -3 -3 -4
6 6 5 5 6 6 6 6 5 6 4 3 4 5 4 3 3 3 3 3 3 3 4 5 5 6 5 6 6 7 8 8 6 5 5 4 4 3 3 2 1 0 -0 -0 -1 -1 -2 -2 -3 -4 -3 -3 -3 -4
7 8 5 6 6 6 6 6 5 4 2 2 3 4 3 4 4 3 3 3 3 3 3 4 5 7 6 6 7 6 7 6 5 3 3 3 2 2 1 1 0 -0 -1 -1 -1 -2 -2 -3 -3 -4 -4 -4 -4 -4
6 5 4 5 5 5 5 4 4 2 2 2 3 2 2 3 3 3 2 2 2 4 5 5 5 5 5 5 4 4 3 3 2 2 2 1 1 1 0 -0 -1 -1 -1 -1 -2 -3 -3 -4 -3 -4 -4 -5 -5 -5
4 5 7 7 7 7 5 4 1 2 2 2 1 2 1 0 0 1 1 1 2 3 3 3 3 2 1 2 1 -0 0 1 1 1 1 1 0 -0 -0 -0 -0 -1 -1 -2 -3 -3 -4 -3 -3 -4 -5 -5 -6 -6
5 7 9 9 9 7 3 3 3 2 2 2 2 1 1 -0 -1 -1 -1 0 1 1 1 1 -0 -0 -1 -1 -2 -2 -2 -1 1 1 0 -0 -0 -0 -0 -1 -1 -1 -2 -2 -3 -4 -5 -5 -6 -6 -6 -6 -7 -7
7 7 7 8 8 3 2 2 3 2 3 2 1 1 1 -0 -1 -1 -1 0 1 1 -1 -2 -3 -3 -3 -3 -3 -3 -4 -3 -0 -1 -2 -3 -3 -3 -3 -2 -4 -4 -5 -6 -6 -6 -7 -7 -7 -7 -8 -8 -8 -8
8 6 6 6 5 3 0 1 2 2 1 2 0 0 0 -0 -1 -2 -2 -1 -1 -1 -2 -3 -4 -4 -5 -5 -5 -5 -5 -5 -5 -4 -3 -5 -6 -6 -6 -6 -6 -7 -7 -7 -8 -9 -9 -9 -9 -9 -9 -9 -9 -9
4 5 4 4 -0 -0 -1 -0 1 -0 1 1 -0 -0 -1 -1 -3 -3 -3 -3 -3 -4 -4 -4 -5 -5 -5 -6 -6 -6 -6 -7 -7 -7 -8 -8 -8 -8 -8 -8 -8 -8 -9 -9 -10 -10 -10 -10 -10 -10 -11 -11 -10 -11
4 4 2 -1 -3 -3 -2 0 -1 0 -0 -2 -2 -1 -2 -4 -3 -3 -5 -4 -5 -5 -5 -6 -6 -7 -7 -8 -8 -8 -8 -8 -8 -9 -9 -10 -10 -10 -11 -11 -10 -10 -10 -11 -11 -11 -12 -12 -12 -12 -12 -12 -12 -12
3 -3 -5 -6 -4 -6 -6 -4 -2 -2 -3 -3 -3 -2 -1 -2 -5 -6 -5 -6 -6 -7 -7 -7 -7 -7 -8 -9 -9 -9 -9 -9 -10 -10 -10 -10 -11 -12 -13 -13 -13 -13 -13 -13 -13 -13 -14 -14 -14 -14 -14 -14 -14 -13
-2 -4 -5 -5 -6 -3 -5 -6 -5 -4 -5 -7 -5 -1 -2 -6 -7 -7 -7 -8 -9 -9 -9 -9 -9 -9 -10 -10 -10 -10 -10 -11 -11 -12 -12 -11 -12 -12 -13 -14 -15 -15 -14 -14 -15 -15 -15 -15 -15 -15 -16 -15 -16 -16
-4 -3 -2 -1 -4 -3 -4 -5 -6 -3 -8 -6 -3 -2 -8 -9 -9 -8 -6 -11 -10 -12 -11 -11 -12 -11 -10 -11 -11 -12 -12 -11 -12 -13 -14 -13 -13 -13 -15 -16 -16 -16 -15 -15 -16 -16 -16 -16 -16 -16 -16 -17 -16 -17
-4 -5 -2 -3 -4 -5 -6 -8 -7 -7 -6 -3 -6 -9 -8 -10 -10 -7 -8 -8 -9 -10 -10 -10 -11 -12 -12 -12 -12 -12 -11 -11 -12 -14 -14 -14 -14 -15 -15 -15 -15 -16 -15 -16 -16 -16 -16 -17 -17 -17 -17 -17 -17 -17
-2 -5 -5 -7 -6 -7 -9 -10 -9 -7 -8 -4 -8 -11 -13 -13 -10 -9 -10 -10 -10 -11 -12 -12 -12 -13 -13 -13 -13 -13 -13 -13 -13 -14 -14 -15 -15 -16 -16 -16 -16 -16 -16 -16 -17 -17 -17 -17 -17 -17 -17 -17 -17 -17
-5 -7 -6 -8 -9 -8 -5 -8 -8 -6 -6 -6 -11 -11 -12 -11 -13 -12 -11 -11 -11 -11 -13 -13 -14 -13 -13 -13 -13 -13 -13 -13 -13 -22 -23 -24 -18 -17 -17 -17 -17 -17 -18 -18 -18 -17 -17 -17 -17 -18 -18 -18 -18 -18
-5 -11 -9 -12 -10 -7 -9 -11 -9 -11 -11 -12 -11 -11 -12 -13 -13 -12 -12 -12 -13 -14 -14 -14 -14 -13 -14 -14 -16 -16 -16 -16 -16 -17 -22 -22 -17 -17 -17 -18 -18 -18 -19 -19 -19 -19 -18 -19 -19 -19 -19 -19 -18 -18
-11 -11 -10 -10 -7 -6 -9 -10 -8 -10 -15 -18 -15 -17 -16 -15 -13 -13 -13 -14 -14 -14 -14 -14 -15 -15 -15 -15 -15 -16 -17 -17 -17 -17 -17 -18 -18 -18 -18 -18 -19 -19 -19 -19 -19 -19 -20 -20 -20 -20 -20 -20 -20 -19
-13 -15 -11 -9 -8 -8 -7 -9 -10 -13 -16 -17 -16 -20 -18 -19 -18 -15 -14 -14 -14 -15 -15 -15 -15 -15 -16 -16 -17 -17 -17 -17 -17 -18 -18 -18 -19 -19 -19 -19 -19 -19 -19 -19 -19 -20 -20 -20 -21 -21 -21 -21 -22 -21
-15 -16 -16 -14 -10 -10 -13 -10 -9 -12 -13 -14 -15 -16 -18 -18 -18 -15 -15 -15 -15 -15 -15 -15 -15 -16 -16 -16 -17 -17 -18 -18 -18 -19 -19 -19 -19 -19 -19 -20 -20 -20 -20 -21 -21 -21 -21 -21 -22 -22 -23 -23 -23 -23